Time,TemperatureF,DewpointF,PressureIn,WindDirection,WindDirectionDegrees,WindSpeedMPH,WindSpeedGustMPH,Humidity,HourlyPrecipIn,Conditions,Clouds,dailyrainin,SolarRadiationWatts/m^2,SoftwareType,DateUTC
2013-01-06 13:33:00,36.0,35.0,-100.00,SSW,204,0.0,5.0,98,-99.99,,,0.02,0.000000,,2013-01-06 21:33:00,
2013-01-06 14:00:00,38.0,34.0,-100.00,SSW,206,0.0,13.0,84,-99.99,,,0.15,0.000000,,2013-01-06 22:00:00,
2013-01-06 14:33:00,38.0,34.0,-100.00,SSW,206,0.0,13.0,84,-99.99,,,0.15,0.000000,,2013-01-06 22:33:00,
2013-01-06 15:00:00,38.0,34.0,-100.00,SSW,210,0.0,6.0,84,0.00,,,0.15,0.000000,,2013-01-06 23:00:00,
2013-01-06 15:33:00,38.0,34.0,-100.00,SSW,210,0.0,6.0,84,0.00,,,0.15,0.000000,,2013-01-06 23:33:00,
2013-01-06 15:43:00,38.0,34.0,-100.00,SSW,210,0.0,6.0,84,0.00,,,0.15,0.000000,,2013-01-06 23:43:00,
2013-01-06 15:53:00,38.0,34.0,-100.00,SSW,210,0.0,6.0,84,0.00,,,0.15,0.000000,,2013-01-06 23:53:00,
2013-01-06 16:00:00,41.0,34.0,-100.00,WSW,253,5.0,7.0,76,0.01,,,0.16,0.000000,,2013-01-07 00:00:00,
2013-01-06 16:33:00,41.0,34.0,-100.00,WSW,253,5.0,7.0,76,0.01,,,0.16,0.000000,,2013-01-07 00:33:00,
2013-01-06 16:43:00,41.0,34.0,-100.00,WSW,253,5.0,7.0,76,0.01,,,0.16,0.000000,,2013-01-07 00:43:00,
2013-01-06 16:53:00,41.0,34.0,-100.00,WSW,253,5.0,7.0,76,0.01,,,0.16,0.000000,,2013-01-07 00:53:00,
2013-01-06 17:00:00,37.0,35.0,-100.00,ESE,122,1.0,18.0,94,0.00,,,0.16,0.000000,,2013-01-07 01:00:00,
2013-01-06 17:23:00,37.0,35.0,-100.00,ESE,122,1.0,18.0,94,0.00,,,0.16,0.000000,,2013-01-07 01:23:00,
2013-01-06 17:32:00,37.0,35.0,-100.00,ESE,122,1.0,18.0,94,0.00,,,0.16,0.000000,,2013-01-07 01:32:00,
2013-01-06 17:43:00,37.0,35.0,-100.00,ESE,122,1.0,18.0,94,0.00,,,0.16,0.000000,,2013-01-07 01:43:00,
2013-01-06 17:53:00,37.0,35.0,-100.00,ESE,122,1.0,18.0,94,0.00,,,0.16,0.000000,,2013-01-07 01:53:00,
2013-01-06 18:00:00,35.0,33.0,-100.00,West,271,4.0,8.0,94,0.00,,,0.16,0.000000,,2013-01-07 02:00:00,
2013-01-06 18:23:00,35.0,33.0,-100.00,West,271,4.0,8.0,94,0.00,,,0.16,0.000000,,2013-01-07 02:23:00,
2013-01-06 18:32:00,35.0,33.0,-100.00,West,271,4.0,8.0,94,0.00,,,0.16,0.000000,,2013-01-07 02:32:00,
2013-01-06 18:43:00,35.0,33.0,-100.00,West,271,4.0,8.0,94,0.00,,,0.16,0.000000,,2013-01-07 02:43:00,
2013-01-06 18:53:00,35.0,33.0,-100.00,West,271,4.0,8.0,94,0.00,,,0.16,0.000000,,2013-01-07 02:53:00,
2013-01-06 19:00:00,34.0,34.0,-100.00,WNW,297,1.0,7.0,98,0.01,,,0.17,0.000000,,2013-01-07 03:00:00,
2013-01-06 19:23:00,34.0,34.0,-100.00,WNW,297,1.0,7.0,98,0.01,,,0.17,0.000000,,2013-01-07 03:23:00,
2013-01-06 19:33:00,34.0,34.0,-100.00,WNW,297,1.0,7.0,98,0.01,,,0.17,0.000000,,2013-01-07 03:33:00,
2013-01-06 19:43:00,34.0,34.0,-100.00,WNW,297,1.0,7.0,98,0.01,,,0.17,0.000000,,2013-01-07 03:43:00,
2013-01-06 19:52:00,34.0,34.0,-100.00,WNW,297,1.0,7.0,98,0.01,,,0.17,0.000000,,2013-01-07 03:52:00,
2013-01-06 20:00:00,33.0,32.0,-100.00,NE,55,0.0,4.0,98,0.00,,,0.17,0.000000,,2013-01-07 04:00:00,
2013-01-06 20:33:00,33.0,32.0,-100.00,NE,55,0.0,4.0,98,0.00,,,0.17,0.000000,,2013-01-07 04:33:00,
2013-01-06 20:42:00,33.0,32.0,-100.00,NE,55,0.0,4.0,98,0.00,,,0.17,0.000000,,2013-01-07 04:42:00,
2013-01-06 20:52:00,33.0,32.0,-100.00,NE,55,0.0,4.0,98,0.00,,,0.17,0.000000,,2013-01-07 04:52:00,
2013-01-06 21:00:00,33.0,32.0,-100.00,WSW,240,0.0,10.0,98,0.00,,,0.17,0.000000,,2013-01-07 05:00:00,
2013-01-06 21:22:00,33.0,32.0,-100.00,WSW,240,0.0,10.0,98,0.00,,,0.17,0.000000,,2013-01-07 05:22:00,
2013-01-06 21:33:00,33.0,32.0,-100.00,WSW,240,0.0,10.0,98,0.00,,,0.17,0.000000,,2013-01-07 05:33:00,
2013-01-06 21:43:00,33.0,32.0,-100.00,WSW,240,0.0,10.0,98,0.00,,,0.17,0.000000,,2013-01-07 05:43:00,
2013-01-06 21:52:00,33.0,32.0,-100.00,WSW,240,0.0,10.0,98,0.00,,,0.17,0.000000,,2013-01-07 05:52:00,
2013-01-06 22:00:00,33.0,32.0,-100.00,WNW,295,5.0,7.0,98,0.00,,,0.17,0.000000,,2013-01-07 06:00:00,
2013-01-06 22:22:00,33.0,32.0,-100.00,WNW,295,5.0,7.0,98,0.00,,,0.17,0.000000,,2013-01-07 06:22:00,
2013-01-06 22:32:00,33.0,32.0,-100.00,WNW,295,5.0,7.0,98,0.00,,,0.17,0.000000,,2013-01-07 06:32:00,
2013-01-06 22:42:00,33.0,32.0,-100.00,WNW,295,5.0,7.0,98,0.00,,,0.17,0.000000,,2013-01-07 06:42:00,
2013-01-06 22:52:00,33.0,32.0,-100.00,WNW,295,5.0,7.0,98,0.00,,,0.17,0.000000,,2013-01-07 06:52:00,
2013-01-06 23:00:00,33.0,32.0,-100.00,NW,321,2.0,10.0,97,0.00,,,0.17,0.000000,,2013-01-07 07:00:00,
2013-01-06 23:33:00,33.0,32.0,-100.00,NW,321,2.0,10.0,97,0.00,,,0.17,0.000000,,2013-01-07 07:33:00,
2013-01-06 23:42:00,33.0,32.0,-100.00,NW,321,2.0,10.0,97,0.00,,,0.17,0.000000,,2013-01-07 07:42:00,
2013-01-06 23:52:00,33.0,32.0,-100.00,NW,321,2.0,10.0,97,0.00,,,0.17,0.000000,,2013-01-07 07:52:00,